User: anonymous   Login
Location: Newark
(48.8481°N, 20.9372°E)
Time: 19:01:16
(UTC+00:00)
Language:

DIWATA 2B (PO-101) - Orbit

View from above orbital plane
View from above orbital plane
View from above satellite
View from above satellite

Ground track
Ground track

The orbit data is extracted from the following two-line orbital elements,

1 43678U 18084H   20101.58707184  .00000006  00000-0  62814-5 0  9995
2 43678  97.8731 220.0333 0011158  46.5292 313.6814 14.91618754 78908
Epoch (UTC): 10 April 2020 14:05:23
Eccentricity: 0.0011158
inclination: 97.8731°
perigee height: 585 km
apogee height: 600 km
right ascension of ascending node: 220.0333°
argument of perigee: 46.5292°
revolutions per day: 14.91618754
mean anomaly at epoch: 313.6814°
orbit number at epoch: 7890

The dashed part of the orbit path shows where the satellite is in the earth's shadow,  

DLR